Waarnemingen

Advertentie
Mijn weer
Lahr, Duitsland (10805): temperatuur & dauwpunt: 16.11.2017 08:00:00 - 22.11.2017 08:00:00 (CET)Lahr, Duitsland (10805): temperatuur 5cm & temperatuur -5cm: 16.11.2017 08:00:00 - 22.11.2017 08:00:00 (CET)Lahr, Duitsland (10805): temperatuur -20cm & temperatuur -100cm: 16.11.2017 08:00:00 - 22.11.2017 08:00:00 (CET)Lahr, Duitsland (10805): windsnelheid & windstoten: 16.11.2017 08:00:00 - 22.11.2017 08:00:00 (CET)Lahr, Duitsland (10805): windrichting: 16.11.2017 08:00:00 - 22.11.2017 08:00:00 (CET)Lahr, Duitsland (10805): luchtdruk: 16.11.2017 08:00:00 - 22.11.2017 08:00:00 (CET)Lahr, Duitsland (10805): zicht: 16.11.2017 08:00:00 - 22.11.2017 08:00:00 (CET)Lahr, Duitsland (10805): Zonneschijnduur: 16.11.2017 08:00:00 - 22.11.2017 08:00:00 (CET)Lahr, Duitsland (10805): neerslag: 16.11.2017 08:00:00 - 22.11.2017 08:00:00 (CET)
Datum & Tijd tt [°C] td [°C] tt 5cm [°C] tt -5cm [°C] tt -20cm [°C] tt -100cm [°C] ff [km/u] ff [kn] fx [km/u] fx [kn] dd ppp [hPa] vv [km] sd [min] rr [mm]
22.11.2017 08:00:00 4,3 2,2 0,5 1,9 5,4 9,9 5 3 15 8 ZW 1014,6 10 0 0,0
22.11.2017 07:00:00 3,0 0,6 0,9 2,2 5,5 9,9 8 5 15 8 ZZW 1015,1 32 0 0,0
22.11.2017 06:00:00 3,5 2,5 1,9 2,5 5,6 9,9 5 3 7 4 ZZO 1015,6 21 0 0,0
22.11.2017 05:00:00 2,9 2,5 1,7 2,6 5,8 9,9 4 2 8 5 WNW 1015,8 15 0 0,0
22.11.2017 04:00:00 3,9 3,1 2,5 2,8 5,9 9,9 6 3 9 5 Z 1015,8 25 0 0,0
22.11.2017 03:00:00 3,1 2,7 0,9 2,8 6,1 9,9 3 2 5 3 Z 1016,4 18 0 0,0
22.11.2017 02:00:00 3,6 2,8 1,2 3,1 6,3 9,9 1 1 6 3 OZO 1016,4 18 0 0,0
22.11.2017 01:00:00 5,1 3,6 2,5 3,4 6,4 9,9 5 3 7 4 ZO 1016,6 20 0 0,0
22.11.2017 00:00:00 5,7 4,2 1,4 3,7 6,6 9,9 1 1 8 4 NNO 1017,1 32 0 0,0
21.11.2017 23:00:00 5,6 3,6 1,6 4,2 6,8 9,9 4 2 14 7 W 1016,9 39 0 0,0
21.11.2017 22:00:00 7,4 3,6 3,4 4,8 7,0 9,9 10 5 21 11 ZZW 1016,5 47 0 0,0
21.11.2017 21:00:00 7,5 4,1 3,3 4,8 7,1 9,9 9 5 13 7 ZZW 1017,0 47 0 0,0
21.11.2017 20:00:00 8,9 4,7 5,7 5,6 7,3 9,9 4 2 15 8 Z 1017,0 10 0 0,0
21.11.2017 19:00:00 9,2 5,0 6,2 6,3 7,3 9,9 13 7 16 8 ZZW 1017,2 10 0 0,0
21.11.2017 18:00:00 7,9 4,9 5,4 7,1 7,3 10,0 11 6 16 9 ZW 1017,5 10 0 0,0
21.11.2017 17:00:00 11,1 6,0 9,4 8,2 7,3 10,0 13 7 21 11 Z 1016,9 10 1 0,0
21.11.2017 16:00:00 11,7 6,0 10,7 8,9 7,1 10,0 16 9 25 14 Z 1017,1 10 0 0,0
21.11.2017 15:00:00 11,4 6,0 10,9 9,4 6,9 10,0 15 8 27 15 ZZW 1017,5 48 0 0,0
21.11.2017 14:00:00 11,0 5,8 11,3 9,5 6,6 10,0 18 10 27 14 Z 1017,7 10 12 0,0
21.11.2017 13:00:00 10,7 5,3 11,7 9,6 6,3 10,0 24 13 28 15 Z 1018,5 10 44 0,0
21.11.2017 12:00:00 10,0 5,6 11,9 8,4 6,1 10,0 15 8 23 12 ZZW 1019,4 10 29 0,0
21.11.2017 11:00:00 8,2 4,9 8,4 6,8 6,0 10,0 18 10 35 19 Z 1019,7 10 3 0,0
21.11.2017 10:00:00 6,8 4,7 6,3 5,9 5,9 10,0 22 12 33 18 Z 1020,2 10 0 0,2
21.11.2017 09:00:00 6,4 5,1 5,9 5,7 5,9 10,0 18 10 31 17 Z 1020,3 10 0 1,1
21.11.2017 08:00:00 6,6 4,9 5,8 5,5 5,8 10,0 21 11 33 18 Z 1020,1 10 0 0,1
21.11.2017 07:00:00 6,5 5,2 5,9 5,4 5,8 10,0 23 12 37 20 Z 1019,4 8 0 0,2
21.11.2017 06:00:00 6,6 4,7 6,3 5,3 5,7 10,0 23 12 35 19 Z 1019,7 30 0 0,0
21.11.2017 05:00:00 6,4 4,4 6,0 5,1 5,7 10,1 24 13 36 20 Z 1019,8 25 0 0,0
21.11.2017 04:00:00 6,2 4,0 5,5 5,1 5,6 10,1 21 11 29 16 Z 1019,9 12 0 0,0
21.11.2017 03:00:00 6,1 3,8 5,7 5,0 5,6 10,1 19 10 31 17 Z 1020,0 21 0 0,0
21.11.2017 02:00:00 6,1 4,1 5,6 4,9 5,6 10,1 21 11 31 17 Z 1020,0 18 0 0,5
21.11.2017 01:00:00 5,8 4,1 5,0 4,9 5,5 10,1 15 8 26 14 Z 1020,6 4,1 0 1,1
21.11.2017 00:00:00 6,4 3,3 5,1 4,8 5,5 10,1 17 9 28 15 Z 1020,3 19 0 0,9
20.11.2017 23:00:00 6,4 3,2 5,3 4,8 5,4 10,1 10 5 25 14 ZZW 1020,9 9 0 0,0
20.11.2017 22:00:00 6,6 3,0 6,1 4,7 5,4 10,1 17 9 30 16 ZZW 1020,3 19 0 0,0
20.11.2017 21:00:00 6,2 2,8 5,8 4,6 5,4 10,1 21 11 31 17 Z 1020,4 17 0 0,0
20.11.2017 20:00:00 5,8 2,8 5,2 4,5 5,3 10,1 21 11 30 16 Z 1021,0 10 0 0,1
20.11.2017 19:00:00 5,8 2,2 5,0 4,4 5,3 10,1 21 11 32 18 Z 1021,3 10 0 0,1
20.11.2017 18:00:00 5,5 2,4 4,5 4,4 5,2 10,1 16 9 28 15 Z 1021,5 10 0 0,0
20.11.2017 17:00:00 5,3 2,1 5,0 4,6 5,1 10,1 16 9 24 13 Z 1022,1 10 0 0,0
20.11.2017 16:00:00 5,3 2,3 5,2 4,8 5,0 10,1 16 9 24 13 Z 1022,5 10 0 0,0
20.11.2017 15:00:00 5,2 2,2 5,3 5,0 4,8 10,1 21 11 24 13 ZZW 1023,1 10 0 0,0
20.11.2017 14:00:00 5,2 2,4 5,5 5,0 4,6 10,2 21 11 24 13 ZZW 1023,4 10 0 0,0
20.11.2017 13:00:00 4,7 2,6 5,5 4,4 4,5 10,2 16 9 23 13 ZZW 1024,2 10 0 0,0
20.11.2017 12:00:00 4,0 2,2 4,5 3,5 4,4 10,2 13 7 19 10 ZZW 1025,2 10 0 0,0
20.11.2017 11:00:00 3,5 2,0 4,2 2,2 4,4 10,2 13 7 16 9 ZZW 1025,7 10 0 0,0
20.11.2017 10:00:00 2,0 1,2 1,7 1,1 4,5 10,2 9 5 18 10 ZZW 1025,6 5 0 0,0
20.11.2017 09:00:00 1,4 0,8 0,8 1,1 4,6 10,2 9 5 11 6 ZZW 1025,8 10 0 0,0
20.11.2017 08:00:00 0,8 0,2 0,1 1,0 4,7 10,2 9 5 13 7 ZZW 1025,4 10 0 0,0
20.11.2017 07:00:00 -0,5 -0,9 -1,2 1,0 4,8 10,2 11 6 14 8 ZW 1025,6 7 0 0,0
20.11.2017 06:00:00 0,1 -0,4 -1,0 1,1 5,0 10,2 9 5 13 7 ZZW 1025,4 7 0 0,0
20.11.2017 05:00:00 -0,1 -0,5 -1,6 1,2 5,1 10,2 9 5 13 7 ZZW 1025,6 10 0 0,0
20.11.2017 04:00:00 -0,7 -1,2 -2,2 1,3 5,3 10,2 5 3 12 6 Z 1025,6 10 0 0,0
20.11.2017 03:00:00 -1,4 -2,2 -2,7 1,4 5,6 10,2 7 4 11 6 ZW 1026,2 8 0 0,0
20.11.2017 02:00:00 0,6 0,2 -1,7 1,4 5,8 10,2 5 3 8 5 ZZW 1026,2 11 0 0,0
20.11.2017 01:00:00 1,2 0,1 -1,5 2,1 6,0 10,2 6 3 13 7 Z 1026,5 12 0 0,0
20.11.2017 00:00:00 3,0 1,6 1,6 2,8 6,1 10,2 9 5 18 10 Z 1026,1 8 0 0,0
19.11.2017 23:00:00 4,1 2,1 2,9 3,6 6,2 10,2 13 7 19 11 Z 1025,8 14 0 0,0
19.11.2017 22:00:00 4,8 1,8 4,2 4,2 6,3 10,2 11 6 18 10 Z 1025,5 19 0 0,0
19.11.2017 21:00:00 5,3 1,4 4,6 4,3 6,4 10,2 11 6 17 9 Z 1025,0 26 0 0,0
19.11.2017 20:00:00 5,4 1,0 4,4 4,3 6,6 10,2 9 5 18 10 ZZW 1024,4 36 0 0,0
19.11.2017 19:00:00 5,3 0,8 4,2 4,5 6,7 10,2 12 6 17 9 Z 1023,7 27 0 0,0
19.11.2017 18:00:00 5,0 0,6 3,5 4,8 6,8 10,2 7 4 10 5 Z 1023,4 60 0 0,0
19.11.2017 17:00:00 5,5 -0,6 1,8 6,0 6,8 10,2 7 4 18 10 W 1022,7 65 19 0,0
19.11.2017 16:00:00 7,9 -0,3 7,7 7,7 6,7 10,2 11 6 21 12 W 1022,0 64 57 0,0
19.11.2017 15:00:00 8,6 -0,3 9,7 8,5 6,4 10,3 11 6 23 13 WNW 1021,6 63 43 0,0
19.11.2017 14:00:00 8,3 -0,3 10,5 8,3 6,2 10,3 13 7 28 15 W 1021,7 26 58 0,0
19.11.2017 13:00:00 6,9 -0,1 6,4 7,2 6,0 10,3 12 6 24 13 WNW 1021,8 51 15 0,0
19.11.2017 12:00:00 7,1 1,0 7,0 6,7 5,9 10,3 17 9 32 17 WNW 1021,6 62 17 0,0
19.11.2017 11:00:00 6,6 3,4 7,3 5,8 5,8 10,3 13 7 18 10 ZW 1021,4 57 37 0,0
19.11.2017 10:00:00 4,5 2,8 3,6 4,4 5,8 10,3 10 6 24 13 ZZW 1020,7 25 2 0,0
19.11.2017 09:00:00 4,2 2,6 3,7 4,1 5,8 10,3 18 10 31 17 ZZW 1020,6 19 0 0,0
19.11.2017 08:00:00 3,9 2,5 3,4 4,0 5,9 10,3 16 8 31 17 ZZW 1019,6 13 0 0,1
19.11.2017 07:00:00 3,8 2,4 3,3 3,9 6,0 10,3 21 11 34 18 Z 1019,2 12 0 0,2
19.11.2017 06:00:00 3,6 2,1 3,4 3,9 6,0 10,3 27 15 46 25 Z 1018,9 12 0 0,0
19.11.2017 05:00:00 3,4 2,2 2,9 3,9 6,1 10,3 29 16 47 25 Z 1018,6 10 0 1,9
19.11.2017 04:00:00 3,3 2,2 2,9 4,1 6,2 10,3 24 13 38 21 Z 1019,7 4,4 0 1,6
19.11.2017 03:00:00 3,5 2,1 3,0 4,2 6,3 10,3 18 10 31 17 Z 1020,6 4,3 0 1,1
19.11.2017 02:00:00 3,7 2,3 3,2 4,4 6,4 10,3 16 9 24 13 Z 1021,2 3,9 0 1,1
19.11.2017 01:00:00 3,9 2,0 3,2 4,5 6,4 10,3 13 7 21 11 Z 1021,9 5 0 0,9
19.11.2017 00:00:00 3,9 2,1 3,3 4,6 6,5 10,3 14 8 22 12 Z 1022,1 8 0 0,5
18.11.2017 23:00:00 4,1 1,9 3,3 4,7 6,6 10,3 13 7 29 15 ZZW 1022,7 7 0 0,6
18.11.2017 22:00:00 4,8 0,7 4,3 4,7 6,7 10,3 18 10 27 15 ZZW 1022,9 17 0 0,0
18.11.2017 21:00:00 5,0 0,9 4,5 5,0 6,7 10,3 15 8 21 11 Z 1023,5 16 0 0,0
18.11.2017 20:00:00 5,3 1,3 4,8 5,1 6,8 10,3 15 8 22 12 Z 1023,8 10 0 0,0
18.11.2017 19:00:00 5,4 0,3 4,6 5,1 7,0 10,4 10 5 18 10 ZW 1024,1 38 0 0,0
18.11.2017 18:00:00 5,0 -0,1 3,6 5,6 7,0 10,4 12 7 20 11 ZW 1023,9 36 0 0,0
18.11.2017 17:00:00 6,2 -0,1 5,0 6,3 7,0 10,4 16 8 26 14 W 1024,1 39 0 0,0
18.11.2017 16:00:00 6,9 2,2 6,4 7,1 7,0 10,4 15 8 23 12 W 1023,8 10 0 0,0
18.11.2017 15:00:00 7,6 2,5 7,8 7,6 6,8 10,4 14 7 21 12 ZZW 1023,6 25 4 0,0
18.11.2017 14:00:00 7,5 1,5 7,7 8,2 6,6 10,4 9 5 22 12 NNO 1024,0 10 9 0,0
18.11.2017 13:00:00 7,7 2,4 8,8 8,3 6,5 10,4 14 8 22 12 ZZW 1024,3 39 8 0,0
18.11.2017 12:00:00 6,8 2,2 7,2 7,5 6,3 10,4 16 9 21 11 ZW 1025,1 28 0 0,0
18.11.2017 11:00:00 6,3 3,9 7,1 6,9 6,2 10,4 11 6 15 8 ZZW 1025,5 9 1 0,0
18.11.2017 10:00:00 6,0 3,8 6,8 5,9 6,2 10,4 10 5 16 8 Z 1025,3 7 1 0,0
18.11.2017 09:00:00 5,0 4,4 5,1 5,2 6,2 10,4 6 3 9 5 Z 1025,5 3,7 0 0,0
18.11.2017 08:00:00 4,8 4,4 4,7 5,1 6,2 10,4 7 4 11 6 ZW 1025,6 3,4 0 0,0
18.11.2017 07:00:00 4,8 4,7 4,8 5,2 6,1 10,4 5 3 9 5 ZZW 1025,4 2,1 0 0,0
18.11.2017 06:00:00 4,8 4,7 4,9 5,3 6,1 10,5 5 3 7 4 ZW 1025,3 2,0 0 0,0
18.11.2017 05:00:00 4,7 4,6 4,9 5,2 6,1 10,5 4 2 4 2 Z 1025,6 1,1 0 0,0
18.11.2017 04:00:00 4,6 4,4 4,8 5,2 6,1 10,5 0 0 4 2 N 1025,7 1,2 0 0,0
18.11.2017 03:00:00 4,7 4,4 4,8 5,2 6,1 10,5 0 0 5 3 N 1025,9 2,7 0 0,0
18.11.2017 02:00:00 4,6 4,4 4,7 5,1 6,1 10,5 4 2 5 3 W 1026,0 2,9 0 0,0
18.11.2017 01:00:00 4,4 4,1 4,6 5,1 6,1 10,5 0 0 7 4 N 1025,9 2,6 0 0,0
18.11.2017 00:00:00 4,3 4,2 4,5 5,1 6,1 10,5 5 3 7 4 NO 1026,4 2,1 0 0,0
17.11.2017 23:00:00 4,3 4,2 4,5 5,1 6,1 10,5 4 2 5 3 N 1026,6 0,3 0 0,0
17.11.2017 22:00:00 4,2 4,2 4,5 5,1 6,1 10,5 4 2 9 5 NNO 1026,7 0,2 0 0,0
17.11.2017 21:00:00 4,1 4,1 4,3 5,0 6,1 10,5 4 2 11 6 NO 1026,9 0,6 0 0,0
17.11.2017 20:00:00 4,2 3,9 4,4 5,1 6,1 10,6 9 5 16 8 NNO 1026,7 3,2 0 0,0
17.11.2017 19:00:00 4,2 3,8 4,3 5,2 6,1 10,6 11 6 18 10 NNO 1026,9 4,0 0 0,0
17.11.2017 18:00:00 4,4 3,9 4,5 5,3 6,1 10,6 11 6 16 8 N 1026,9 4,0 0 0,0
17.11.2017 17:00:00 4,4 3,5 4,6 5,7 6,1 10,6 11 6 17 9 N 1026,9 4,5 0 0,0
17.11.2017 16:00:00 4,6 3,4 4,9 6,2 6,0 10,6 11 6 16 9 N 1026,6 4,5 0 0,0
17.11.2017 15:00:00 4,7 3,1 5,4 6,4 5,8 10,6 9 5 13 7 N 1026,7 9 0 0,0
17.11.2017 14:00:00 4,5 2,5 5,2 6,6 5,6 10,6 9 5 13 7 N 1027,2 10 0 0,0
17.11.2017 13:00:00 4,5 2,0 5,3 6,4 5,4 10,6 5 3 11 6 ONO 1027,6 7 0 0,0
17.11.2017 12:00:00 4,0 2,1 5,0 6,0 5,3 10,6 8 4 13 7 NNO 1028,0 7 0 0,0
17.11.2017 11:00:00 3,7 1,3 4,5 5,4 5,2 10,6 2 1 5 3 - 1028,0 7 0 0,0
17.11.2017 10:00:00 2,8 1,0 3,5 4,2 5,1 10,7 5 3 6 3 ZZW 1028,0 5 0 0,0
17.11.2017 09:00:00 2,3 1,0 2,3 3,5 5,1 10,7 2 1 5 3 - 1028,2 5 0 0,2
17.11.2017 08:00:00 2,2 0,7 2,0 3,2 5,1 10,7 5 3 8 4 ZZO 1027,9 5 0 0,1
17.11.2017 07:00:00 2,1 0,0 2,3 3,2 5,1 10,7 5 3 8 4 WZW 1027,7 8 0 0,0
17.11.2017 06:00:00 2,1 0,0 2,3 3,1 5,1 10,7 4 2 8 5 ZZO 1027,5 8 0 0,0
17.11.2017 05:00:00 2,1 0,0 2,2 2,9 5,2 10,7 6 3 9 5 ZZW 1027,5 8 0 0,0
17.11.2017 04:00:00 1,8 -0,2 2,0 2,8 5,2 10,7 5 3 8 5 Z 1027,3 8 0 0,0
17.11.2017 03:00:00 1,6 -0,3 1,6 2,8 5,3 10,7 6 3 11 6 Z 1027,6 8 0 0,0
17.11.2017 02:00:00 1,7 -0,3 1,8 2,8 5,3 10,7 7 4 9 5 Z 1027,8 8 0 0,0
17.11.2017 01:00:00 1,6 0,1 1,6 2,7 5,4 10,8 5 3 8 4 WZW 1027,8 7 0 0,0
17.11.2017 00:00:00 1,5 -0,1 1,3 2,8 5,5 10,8 5 3 11 6 ZW 1028,0 7 0 0,0
16.11.2017 23:00:00 1,8 -0,6 1,5 3,2 5,5 10,8 8 4 10 5 Z 1027,5 8 0 0,0
16.11.2017 22:00:00 2,1 0,0 1,9 3,4 5,6 10,8 5 3 9 5 WZW 1027,7 8 0 0,0
16.11.2017 21:00:00 2,5 -0,3 2,4 3,6 5,7 10,8 7 4 12 6 ZZW 1027,4 9 0 0,0
16.11.2017 20:00:00 2,5 -0,1 2,5 3,8 5,7 10,8 2 1 9 5 ZW 1027,1 8 0 0,0
16.11.2017 19:00:00 2,4 0,5 2,3 4,0 5,7 10,8 5 3 7 4 WZW 1026,7 9 0 0,0
16.11.2017 18:00:00 2,6 0,1 2,6 4,2 5,7 10,8 4 2 7 4 W 1026,6 8 0 0,0
16.11.2017 17:00:00 2,6 0,3 2,8 4,6 5,7 10,8 4 2 8 4 N 1026,4 9 0 0,0
16.11.2017 16:00:00 2,9 0,1 3,2 5,1 5,6 10,9 5 3 9 5 NNW 1026,2 10 0 0,0
16.11.2017 15:00:00 2,8 -0,4 3,5 5,3 5,5 10,9 4 2 10 5 N 1025,9 10 0 0,0
16.11.2017 14:00:00 3,1 -0,5 3,9 5,5 5,3 10,9 4 2 8 4 - 1026,0 10 0 0,0
16.11.2017 13:00:00 2,4 -0,8 3,3 4,9 5,2 10,9 8 4 11 6 WNW 1026,3 6 0 0,0
16.11.2017 12:00:00 2,5 -0,5 3,0 4,5 5,1 10,9 8 4 11 6 ZW 1026,3 6 0 0,0
16.11.2017 11:00:00 1,9 0,2 2,4 3,7 5,1 10,9 8 4 9 5 ZZW 1026,8 6 0 0,0
16.11.2017 10:00:00 1,2 0,1 1,4 3,2 5,1 10,9 5 3 9 5 Z 1026,6 5 0 0,0
16.11.2017 09:00:00 1,1 0,0 1,2 2,8 5,1 10,9 5 3 11 6 Z 1026,5 5 0 0,0
16.11.2017 08:00:00 0,7 0,4 0,9 2,7 5,2 11,0 8 4 13 7 Z 1026,1 4,5 0 0,0

tt = temperatuur
td = dauwpunt
tt 5cm = temperatuur 5cm
tt -5cm = temperatuur -5cm
tt -20cm = temperatuur -20cm
tt -100cm = temperatuur -100cm
ff = windsnelheid
fx = windstoten
dd = windrichting
ppp = luchtdruk
vv = zicht
sd = Zonneschijnduur
rr = neerslag

Weerstations in de omgeving